Theta_e
354 352 351 350 350 348 348 348 347 345 345 344 343 343 343 342 341 341 341 341 340 338 338 338 336 335 335 338 336 335 333 332 330 328 327 327 326 326 325 326 328 333 335
353 352 350 345 338 335 335 335 335 336 337 337 337 337 338 338 339 339 339 338 335 337 337 336 335 333 332 334 336 332 334 334 333 331 331 331 331 330 329 324 324 320 322
339 339 337 336 337 337 335 335 334 333 332 331 331 332 334 335 337 337 338 339 338 339 338 337 336 336 336 335 336 334 334 334 334 335 335 334 332 332 331 325 327 323 320
336 335 335 336 337 337 335 336 335 334 332 329 330 331 333 334 334 335 336 337 336 336 335 334 335 336 336 335 336 336 334 334 335 335 335 335 334 333 330 328 328 323 317
340 339 338 338 339 338 336 335 335 336 334 334 334 333 334 336 336 336 336 336 334 333 333 333 334 334 333 333 333 333 334 334 334 333 332 332 330 327 324 325 326 324 317
342 340 341 342 341 340 339 336 334 333 333 333 334 333 334 335 335 333 331 330 329 330 328 326 326 323 322 320 317 315 315 317 316 315 315 318 320 324 325 324 324 323 322
343 342 341 339 337 337 338 335 333 331 330 327 324 322 320 318 316 314 312 311 310 309 309 308 307 307 307 307 307 307 307 307 308 312 314 314 314 317 320 321 320 321 321
343 340 340 338 336 335 334 331 329 324 319 316 315 311 309 309 310 312 313 312 311 310 310 309 308 308 308 307 307 307 308 308 308 309 308 309 312 313 315 319 320 318 317
342 341 338 337 335 335 331 325 319 313 310 310 310 313 313 313 314 314 312 311 311 310 309 308 308 309 309 309 309 310 310 309 309 310 310 309 309 308 311 313 314 316 316
343 338 336 335 332 329 323 316 310 308 309 313 313 313 314 314 311 311 310 310 309 309 309 310 310 310 310 310 310 310 310 309 309 310 311 311 311 310 310 309 309 311 312
339 337 334 329 321 315 312 312 312 313 314 314 313 313 313 312 311 310 310 310 310 310 310 310 310 309 309 309 308 308 308 309 310 310 311 312 311 311 311 311 310 311 311
337 335 328 318 312 313 313 314 315 315 314 314 313 312 312 312 312 311 311 311 310 310 310 309 308 307 307 307 307 307 308 309 310 310 310 310 309 310 310 311 311 312 313
336 326 316 312 314 314 314 314 314 315 315 315 315 314 313 313 312 311 311 310 309 308 307 307 307 307 307 306 306 306 307 308 309 309 309 309 308 309 310 311 311 310 310
325 316 312 315 316 316 314 314 314 314 314 313 313 312 312 311 311 310 309 308 307 307 307 307 306 307 307 307 307 306 306 307 307 308 309 310 309 309 308 308 309 310 310
313 312 314 316 315 314 314 313 312 311 311 312 312 312 311 311 310 309 307 307 307 307 307 306 306 306 307 307 307 307 307 307 307 307 307 307 308 309 309 309 309 308 308
310 312 314 314 314 313 312 311 311 311 312 312 312 311 310 308 307 307 307 307 307 307 306 306 306 306 305 306 307 307 307 307 307 307 306 306 306 307 308 309 309 308 308
310 313 314 314 314 313 312 312 312 311 311 311 310 307 306 306 306 307 307 308 307 306 306 306 306 306 306 305 306 306 306 306 306 305 305 305 305 305 306 307 308 307 307
315 315 315 314 313 312 312 311 310 311 311 308 307 307 306 306 307 307 308 308 307 307 306 307 305 305 306 306 306 306 306 305 305 305 305 305 305 305 305 305 306 306 306
316 315 315 314 313 313 312 310 310 311 309 308 308 309 308 308 307 307 307 307 307 306 306 305 305 306 305 305 306 305 305 306 305 305 305 305 305 305 304 304 305 305 306
316 312 312 312 313 311 310 310 311 310 308 309 309 309 308 308 308 307 306 307 307 306 305 305 304 304 305 305 304 305 305 306 305 304 303 303 304 304 304 304 304 304 304
312 312 312 312 311 309 309 310 311 310 309 310 310 310 308 308 308 307 307 307 307 306 307 306 306 304 305 305 304 304 304 306 305 305 302 300 304 305 304 303 303 303 304
312 312 311 310 309 309 310 311 311 310 311 310 310 309 310 309 308 309 308 307 307 307 307 307 305 304 305 306 306 305 304 304 304 307 306 303 304 304 303 303 303 303 303
311 312 311 310 309 310 310 311 311 311 312 311 310 310 310 309 309 309 308 307 307 307 307 305 304 304 306 306 306 306 306 305 304 305 307 304 303 303 303 303 303 302 303
312 311 310 311 310 310 311 312 312 311 310 309 311 310 310 309 308 308 307 307 307 306 305 304 304 305 307 307 306 306 305 305 305 306 307 306 303 303 303 302 302 302 302
312 311 311 311 310 309 309 309 309 309 310 310 310 310 309 308 307 307 307 307 306 305 304 304 306 307 307 306 306 307 306 306 306 306 306 306 304 303 302 302 301 302 303
311 311 311 310 309 310 310 309 308 309 309 309 309 308 307 307 307 307 307 306 305 304 304 306 307 307 307 304 302 300 300 300 301 301 302 303 303 302 303 302 302 302 303
Wind_Speed
10 12 12 10 9 4 4 4 6 6 4 3 3 4 5 6 7 8 7 9 14 20 19 18 15 10 9 10 11 10 11 12 15 17 18 14 17 19 21 24 27 27 25
8 6 3 1 2 2 3 3 2 2 3 4 4 4 4 3 4 2 6 9 5 10 22 24 23 25 23 16 13 15 14 13 15 18 20 22 23 23 25 25 23 23 27
2 2 4 5 5 6 6 6 6 7 6 5 6 6 6 5 3 1 1 3 6 5 4 11 18 17 18 18 17 20 22 21 21 22 25 26 29 29 29 28 25 24 21
2 2 2 2 2 2 3 2 2 2 3 3 4 4 4 3 3 3 2 3 6 8 7 7 8 12 15 13 17 23 25 26 24 25 29 31 32 32 31 29 29 27 27
2 3 2 1 1 3 3 1 1 0 1 1 2 3 5 5 3 2 3 4 4 5 6 7 8 9 11 15 18 21 22 24 25 28 31 36 35 29 29 29 30 31 30
2 2 1 1 3 4 5 5 4 4 4 4 5 6 8 9 10 11 12 11 12 12 13 13 13 12 14 15 16 17 20 24 26 28 28 30 30 28 28 29 28 28 29
2 1 2 3 4 6 9 7 6 6 7 8 7 8 8 10 11 11 10 8 6 6 8 9 11 11 12 12 13 14 16 19 24 27 29 28 31 30 29 30 30 30 31
4 3 4 5 5 8 7 8 7 8 8 7 6 7 7 6 6 5 6 8 10 12 14 14 14 13 15 18 21 23 25 25 25 26 30 33 32 33 32 30 31 35 36
8 8 7 7 9 11 9 9 10 8 6 5 3 1 3 7 5 5 8 11 14 16 16 16 18 19 21 24 30 33 34 32 31 29 30 31 31 34 33 36 37 36 40
10 7 6 9 9 9 9 10 9 6 2 1 3 5 8 6 6 9 10 13 15 15 16 19 20 24 28 31 36 39 42 37 34 32 31 30 28 29 27 31 36 37 37
8 6 6 7 7 8 6 3 0 1 2 5 5 5 6 8 11 10 13 15 17 18 20 24 28 31 35 37 36 36 34 32 33 33 33 32 29 26 24 22 22 24 27
5 7 6 5 3 1 1 0 1 2 3 5 6 7 8 11 13 14 17 18 18 21 26 30 32 33 32 32 31 29 28 28 29 29 29 29 27 24 19 17 17 18 19
8 6 5 3 2 2 2 2 3 5 8 10 11 13 14 16 17 14 12 13 17 20 22 25 29 30 31 31 29 27 26 26 26 25 26 27 24 21 18 18 17 18 19
8 7 4 2 2 3 4 5 6 7 8 10 12 13 15 15 14 14 14 13 17 22 26 29 31 29 25 27 28 26 23 23 25 25 25 24 24 23 23 22 22 21 23
8 5 3 2 1 3 4 6 9 10 10 10 12 10 11 14 17 15 15 18 20 23 27 32 31 29 28 26 26 25 23 25 26 24 24 25 25 24 24 25 26 26 27
4 4 3 2 2 4 8 7 9 12 13 11 11 16 17 16 12 13 16 21 23 27 34 32 32 32 33 32 30 29 29 29 29 29 27 25 26 27 27 25 25 23 23
6 9 6 3 4 4 6 11 13 11 11 15 16 13 14 16 14 15 17 23 25 28 30 28 28 32 31 29 29 29 31 31 31 32 32 30 27 27 26 25 23 22 22
8 5 4 5 4 6 9 10 9 11 15 13 9 16 17 16 15 19 22 26 32 31 30 28 29 32 30 30 30 31 31 32 34 34 35 33 30 28 26 25 24 23 24
5 3 5 7 8 10 9 9 11 13 14 11 11 15 17 19 21 25 25 27 30 32 27 28 30 31 32 31 32 31 30 32 33 35 36 34 33 30 28 25 25 24 22
2 4 4 7 8 7 8 12 13 14 13 14 15 17 21 21 27 28 30 29 30 26 27 31 35 36 35 33 32 34 34 37 36 39 35 31 30 26 25 23 22 22 21
1 4 7 6 6 7 11 12 11 14 17 20 20 20 22 25 30 29 32 32 24 26 32 37 42 38 35 34 33 33 33 33 36 37 36 21 25 28 23 20 20 19 18
3 7 11 5 7 11 14 12 12 16 20 21 23 24 23 27 31 29 31 32 29 32 36 41 43 40 38 35 34 35 35 35 33 32 32 15 18 20 18 18 18 18 17
5 10 9 7 11 15 14 13 14 18 21 23 24 27 27 31 29 29 34 33 32 33 41 44 43 42 40 36 35 36 38 37 32 28 28 18 18 19 17 18 17 16 17
10 8 5 8 14 16 15 14 17 19 21 22 26 27 29 30 28 31 32 31 34 43 45 45 45 45 42 41 42 41 40 37 32 30 27 22 20 22 19 17 16 16 16
10 7 6 11 16 13 13 14 16 19 21 23 27 27 28 29 29 32 32 37 42 45 47 47 48 49 53 55 56 52 46 38 32 29 26 22 20 19 19 17 15 15 13
7 5 8 13 11 13 16 17 17 19 22 25 26 28 29 31 31 34 37 40 44 46 46 48 54 60 59 49 44 38 32 26 22 21 20 19 17 20 19 15 14 12 12
Wind_Direction
263 281 290 303 317 301 257 266 286 301 321 331 313 304 300 289 280 274 270 252 272 262 271 255 244 235 235 262 273 280 279 277 280 285 288 284 286 290 285 279 281 279 278
268 273 293 42 92 81 70 69 74 32 18 21 22 25 25 1 348 320 276 261 250 283 264 249 234 245 247 252 264 277 285 288 291 290 289 290 290 295 303 304 294 284 276
223 77 86 88 86 65 66 70 73 81 75 55 50 47 56 49 42 49 266 301 286 309 255 261 247 246 244 238 252 258 264 272 278 283 286 289 293 299 300 300 294 290 288
130 66 44 48 35 57 100 108 104 92 78 52 28 23 28 31 10 351 332 293 279 282 289 283 274 258 248 247 253 265 269 271 274 279 284 288 291 294 295 296 293 293 295
117 84 78 27 36 25 25 43 36 340 276 279 315 318 317 322 322 312 301 300 315 301 293 277 270 270 267 268 272 274 277 279 281 282 283 284 286 288 290 292 294 298 297
92 48 78 279 301 311 322 307 301 307 306 291 287 288 286 287 292 288 286 288 286 281 280 283 285 287 285 283 282 284 288 289 287 285 281 282 285 285 286 287 292 296 298
189 234 212 277 307 304 304 296 293 296 296 296 290 286 283 283 288 296 301 314 331 329 322 317 314 307 301 298 300 305 302 294 288 286 284 279 281 282 285 286 286 286 286
213 186 212 263 291 300 296 298 302 304 303 294 289 288 289 287 293 304 318 329 332 341 342 339 334 325 316 311 308 311 310 307 298 287 277 276 273 274 276 279 281 282 283
218 237 241 252 271 289 296 303 307 304 297 294 282 6 333 325 317 323 325 324 325 325 325 329 331 326 322 321 320 318 313 309 307 298 290 283 277 273 271 275 274 279 282
250 252 269 274 279 287 293 300 299 294 263 228 298 303 335 347 342 324 314 312 316 319 323 323 321 319 318 317 314 311 310 311 308 303 299 290 283 279 277 267 270 273 278
226 242 269 282 288 289 300 320 319 325 312 347 352 336 313 314 324 327 322 316 314 309 310 315 316 316 313 310 307 303 303 304 303 303 305 302 294 287 282 278 269 267 271
241 271 283 287 265 176 84 319 266 340 336 346 352 321 313 314 315 307 303 305 300 306 312 314 316 315 316 316 312 306 299 297 296 296 303 306 300 296 292 280 269 264 266
254 262 269 247 183 178 237 263 273 289 299 294 296 299 304 303 306 304 297 298 302 309 322 332 329 320 319 319 319 313 305 297 294 291 299 308 308 300 294 283 272 269 272
243 249 248 226 261 249 276 279 290 292 294 298 301 303 299 300 306 307 307 307 315 323 324 320 322 317 313 315 316 318 313 310 299 296 295 295 302 302 292 290 288 286 281
229 227 226 249 268 283 289 308 310 312 314 316 314 313 319 318 312 305 313 322 327 329 328 328 325 324 322 318 315 314 313 312 310 310 306 299 293 291 289 289 285 278 277
215 191 205 206 209 285 315 325 323 320 320 326 325 323 324 321 320 313 319 321 324 326 326 329 332 333 329 325 319 319 318 315 309 308 302 295 293 292 292 292 296 293 281
161 143 147 199 260 298 318 316 315 314 313 319 323 334 345 336 320 316 325 326 329 333 329 327 331 329 325 319 316 315 314 312 309 307 306 301 296 290 290 291 294 296 291
155 177 212 256 288 291 301 304 306 311 322 330 346 0 357 343 330 326 323 321 329 327 330 325 332 327 326 328 323 320 318 316 309 303 295 293 289 288 286 285 283 286 289
172 203 269 280 285 288 288 299 311 321 331 329 344 354 345 341 343 342 334 325 324 325 326 327 326 324 325 328 326 322 318 318 312 306 297 286 280 281 282 280 279 282 289
275 337 315 310 286 273 291 307 314 325 332 332 333 333 338 325 329 335 336 329 327 324 325 331 328 324 320 313 318 321 326 321 309 311 305 284 275 275 275 276 275 278 280
347 339 336 318 281 289 308 307 311 327 328 324 321 321 326 320 321 326 330 332 325 324 328 330 330 328 324 321 322 315 313 312 316 318 316 279 260 270 268 270 272 273 273
318 324 319 294 290 311 316 307 311 316 323 314 319 320 315 318 316 312 322 327 317 315 321 324 325 324 323 317 317 317 315 315 315 319 324 275 259 266 264 265 270 272 268
300 305 293 276 320 317 305 308 302 311 319 320 323 320 320 320 320 315 319 320 321 321 322 323 322 320 320 315 311 311 310 311 311 309 314 286 255 265 264 263 263 263 260
294 280 277 316 334 320 303 301 308 320 324 322 323 320 321 325 327 325 323 322 322 321 322 323 322 320 318 315 312 307 303 301 299 296 297 294 259 256 262 256 259 259 262
283 251 297 324 325 330 328 326 326 324 321 321 321 327 328 331 330 329 329 325 324 325 325 326 324 323 319 312 306 303 300 296 290 286 279 279 255 241 255 250 250 256 247
266 249 301 316 329 332 327 328 328 328 327 326 326 327 327 329 329 329 329 329 328 328 328 329 327 321 321 317 309 303 295 285 279 272 264 259 247 230 237 243 258 237 225